Weather History for KETB - July, 2013

Change the Weather History Date:

Wednesday, July 3, 2013

  Actual Average Record
Temperature  
Mean Temperature 58 °F -  
Max Temperature 62 °F 80 °F 96 °F (1966)
Min Temperature 55 °F 58 °F 44 °F (1924)
Degree Days  
Heating Degree Days 6    
Growing Degree Days 8 (Base 50)    
Moisture  
Dew Point 56 °F    
Average Humidity 84    
Maximum Humidity 94    
Minimum Humidity 68    
Precipitation  
Precipitation 0.16 in - - ()
Sea Level Pressure  
Sea Level Pressure 30.07 in    
Wind  
Wind Speed 3 mph (NE)    
Max Wind Speed 10 mph    
Max Gust Speed -    
Visibility 7 miles    
Events Rain    
Averages and records for this station are not official NWS values.
T = Trace of Precipitation, MM = Missing Value Source: NWS Daily Summary

Daily Weather History Graph

Daily Weather History Graph

Search for Another Location

Airport or City:

Trip Planner

Search our weather history database for the weather conditions in past years. The results will help you decide how hot, cold, wet, or windy it might be!

Date:

Astronomy

Jul. 03, 2013 Rise Set
Actual Time 5:16 AM CDT 8:36 PM CDT
Civil Twilight 4:41 AM CDT 9:11 PM CDT
Nautical Twilight 3:55 AM CDT 9:57 PM CDT
Astronomical Twilight 2:58 AM CDT 10:54 PM CDT
Moon 1:58 AM CDT (7/3) 4:43 PM CDT (7/3)
Length of Visible Light 16h 30m
Length of Day
15h 19m
Waning Crescent, 18% of the Moon is Illuminated
Jul 3
Waning Crescent
Jul 8
New
Jul 15
First Quarter
Jul 22
Full
Jul 29
Last Quarter

Hourly Weather History & Observations

Time (CDT) Temp. Dew Point Humidity Pressure Visibility Wind Dir Wind Speed Gust Speed Precip Events Conditions
12:15 AM 57.2 °F 48.2 °F 72% 30.09 in 10.0 mi North 3.5 mph - N/A   Overcast
12:55 AM 57.2 °F 50.0 °F 77% 30.09 in 10.0 mi North 3.5 mph - N/A   Overcast
1:15 AM 55.4 °F 50.0 °F 82% 30.09 in 7.0 mi Calm Calm - N/A   Heavy Drizzle
1:35 AM 55.4 °F 51.8 °F 88% 30.08 in 10.0 mi NNW 3.5 mph - 0.01 in Rain Light Rain
1:55 AM 55.4 °F 51.8 °F 88% 30.08 in 10.0 mi NNW 3.5 mph - 0.02 in   Overcast
2:15 AM 55.4 °F 53.6 °F 94% 30.08 in 10.0 mi Calm Calm - N/A   Overcast
2:35 AM 55.4 °F 53.6 °F 94% 30.08 in 10.0 mi Calm Calm - N/A   Overcast
2:55 AM 55.4 °F 53.6 °F 94% 30.07 in 10.0 mi Calm Calm - N/A   Overcast
3:15 AM 57.2 °F 53.6 °F 88% 30.07 in 10.0 mi ENE 3.5 mph - N/A   Overcast
3:35 AM 57.2 °F 53.6 °F 88% 30.07 in 10.0 mi NNE 3.5 mph - N/A   Overcast
3:55 AM 57.2 °F 53.6 °F 88% 30.06 in 10.0 mi NNE 4.6 mph - N/A   Overcast
4:15 AM 57.2 °F 53.6 °F 88% 30.06 in 10.0 mi NNE 3.5 mph - N/A   Overcast
4:35 AM 59.0 °F 53.6 °F 82% 30.06 in 10.0 mi Calm Calm - N/A   Overcast
4:55 AM 59.0 °F 53.6 °F 82% 30.06 in 10.0 mi NE 3.5 mph - N/A   Overcast
5:15 AM 59.0 °F 53.6 °F 82% 30.07 in 10.0 mi Calm Calm - N/A   Overcast
5:35 AM 59.0 °F 53.6 °F 82% 30.07 in 10.0 mi Calm Calm - N/A   Overcast
5:55 AM 59.0 °F 53.6 °F 82% 30.07 in 10.0 mi Calm Calm - N/A   Overcast
6:15 AM 59.0 °F 53.6 °F 82% 30.07 in 10.0 mi Calm Calm - N/A   Overcast
6:35 AM 59.0 °F 53.6 °F 82% 30.08 in 10.0 mi NNE 3.5 mph - N/A   Overcast
6:55 AM 59.0 °F 53.6 °F 82% 30.08 in 10.0 mi Calm Calm - N/A   Overcast
7:15 AM 59.0 °F 53.6 °F 82% 30.08 in 10.0 mi NNE 4.6 mph - N/A   Overcast
7:35 AM 60.8 °F 53.6 °F 77% 30.08 in 10.0 mi NE 4.6 mph - N/A   Overcast
7:55 AM 60.8 °F 53.6 °F 77% 30.08 in 10.0 mi NE 6.9 mph - N/A   Overcast
8:15 AM 60.8 °F 53.6 °F 77% 30.09 in 10.0 mi NE 10.4 mph - N/A   Overcast
8:35 AM 60.8 °F 53.6 °F 77% 30.09 in 10.0 mi ENE 10.4 mph - N/A   Mostly Cloudy
8:55 AM 62.6 °F 53.6 °F 72% 30.10 in 10.0 mi NNE 8.1 mph - N/A   Mostly Cloudy
9:15 AM 62.6 °F 51.8 °F 68% 30.10 in 10.0 mi ENE 6.9 mph - N/A   Overcast
9:35 AM 62.6 °F 51.8 °F 68% 30.09 in 10.0 mi NNE 5.8 mph - N/A   Overcast
9:55 AM 62.6 °F 51.8 °F 68% 30.09 in 10.0 mi NE 6.9 mph - N/A   Overcast
10:15 AM 62.6 °F 51.8 °F 68% 30.09 in 10.0 mi NE 6.9 mph - N/A   Overcast
10:35 AM 62.6 °F 51.8 °F 68% 30.09 in 10.0 mi NE 9.2 mph - N/A   Overcast
10:55 AM 62.6 °F 53.6 °F 72% 30.08 in 10.0 mi ENE 8.1 mph - N/A   Overcast
11:15 AM 62.6 °F 53.6 °F 72% 30.09 in 10.0 mi ENE 8.1 mph - N/A Rain Rain
11:35 AM 62.6 °F 53.6 °F 72% 30.09 in 10.0 mi ENE 5.8 mph - N/A Rain Light Rain
11:55 AM 60.8 °F 53.6 °F 77% 30.08 in 10.0 mi ENE 3.5 mph - N/A   Drizzle
12:15 PM 60.8 °F 55.4 °F 82% 30.08 in 4.0 mi ENE 5.8 mph - 0.01 in Rain Rain
12:35 PM 60.8 °F 55.4 °F 82% 30.09 in 4.0 mi NE 4.6 mph - 0.04 in Rain Rain
12:55 PM 60.8 °F 55.4 °F 82% 30.08 in 3.0 mi North 5.8 mph - 0.07 in Rain Heavy Rain
1:15 PM 60.8 °F 57.2 °F 88% 30.08 in 5.0 mi NNE 4.6 mph - 0.03 in Rain Light Rain
1:35 PM 60.8 °F 57.2 °F 88% 30.08 in 7.0 mi North 5.8 mph - 0.06 in   Overcast
1:55 PM 60.8 °F 57.2 °F 88% 30.07 in 7.0 mi NNE 8.1 mph - 0.06 in Rain Light Rain
2:15 PM 60.8 °F 57.2 °F 88% 30.06 in 7.0 mi North 5.8 mph - N/A Rain Light Rain
2:35 PM 62.6 °F 59.0 °F 88% 30.06 in 5.0 mi NE 5.8 mph - 0.01 in Rain Light Rain
2:55 PM 62.6 °F 59.0 °F 88% 30.06 in 7.0 mi NE 4.6 mph - 0.01 in   Overcast
3:15 PM 62.6 °F 59.0 °F 88% 30.06 in 7.0 mi North 3.5 mph - N/A   Overcast
3:35 PM 62.6 °F 59.0 °F 88% 30.06 in 10.0 mi ENE 4.6 mph - N/A   Overcast
4:15 PM 62.6 °F 59.0 °F 88% 30.05 in 10.0 mi East 3.5 mph - N/A   Overcast
4:35 PM 62.6 °F 59.0 °F 88% 30.05 in 7.0 mi ENE 5.8 mph - N/A   Overcast
4:55 PM 62.6 °F 59.0 °F 88% 30.05 in 5.0 mi East 3.5 mph - N/A   Overcast
5:15 PM 62.6 °F 59.0 °F 88% 30.05 in 4.0 mi East 4.6 mph - N/A   Overcast
5:35 PM 62.6 °F 59.0 °F 88% 30.05 in 2.5 mi ENE 3.5 mph - N/A   Overcast
5:55 PM 62.6 °F 59.0 °F 88% 30.04 in 3.0 mi ENE 3.5 mph - N/A   Overcast
6:15 PM 62.6 °F 59.0 °F 88% 30.04 in 4.0 mi NE 3.5 mph - N/A   Overcast
6:35 PM 62.6 °F 59.0 °F 88% 30.04 in 4.0 mi Calm Calm - N/A   Overcast
6:55 PM 62.6 °F 59.0 °F 88% 30.04 in 4.0 mi Calm Calm - N/A   Overcast
7:15 PM 62.6 °F 59.0 °F 88% 30.04 in 4.0 mi Calm Calm - N/A   Overcast
7:35 PM 62.6 °F 59.0 °F 88% 30.04 in 3.0 mi Calm Calm - N/A   Overcast
7:55 PM 62.6 °F 59.0 °F 88% 30.04 in 4.0 mi Calm Calm - N/A   Overcast
8:15 PM 62.6 °F 59.0 °F 88% 30.05 in 3.0 mi Calm Calm - N/A   Overcast
8:35 PM 62.6 °F 59.0 °F 88% 30.05 in 4.0 mi Calm Calm - N/A   Overcast
8:55 PM 62.6 °F 59.0 °F 88% 30.05 in 5.0 mi Calm Calm - N/A   Overcast
9:15 PM 62.6 °F 59.0 °F 88% 30.06 in 5.0 mi Calm Calm - N/A   Overcast
9:35 PM 62.6 °F 59.0 °F 88% 30.06 in 5.0 mi Calm Calm - N/A   Overcast
9:55 PM 62.6 °F 59.0 °F 88% 30.06 in 5.0 mi ESE 3.5 mph - N/A   Overcast
10:15 PM 62.6 °F 59.0 °F 88% 30.06 in 4.0 mi Calm Calm - N/A   Overcast
10:35 PM 60.8 °F 59.0 °F 94% 30.06 in 3.0 mi Calm Calm - N/A   Overcast
10:55 PM 60.8 °F 59.0 °F 94% 30.06 in 2.5 mi Calm Calm - N/A   Overcast
11:15 PM 60.8 °F 59.0 °F 94% 30.07 in 2.0 mi Calm Calm - N/A   Overcast
11:35 PM 60.8 °F 59.0 °F 94% 30.06 in 2.0 mi Calm Calm - N/A   Overcast
11:55 PM 60.8 °F 59.0 °F 94% 30.06 in 2.0 mi SSE 3.5 mph - N/A   Overcast